Location: York
(31.8935°S, 116.7682°E)
Time: 23:16:41
(UTC+08:00)

Envisat - Pass Details

Date: 22 May 2021
Orbit: 764 x 766 km, 98.1° (Epoch: 14 June)

Event Time Altitude Azimuth Distance (km) Brightness Sun altitude
Rises 17:37:34 0° 169° (S) 3,264 5.9 -4.2°
Reaches altitude 10° 17:39:53 10° 169° (SSE) 2,331 5.2 -4.7°
Maximum altitude 17:45:03 87° 255° (WSW) 779 3.1 -5.7°
Drops below altitude 10° 17:50:08 10° 345° (NNW) 2,301 6.0 -6.7°
Sets 17:52:25 0° 346° (NNW) 3,219 6.8 -7.2°
